User: anonymous   Login
Location: Unspecified
(0.0000°N, 0.0000°E)
Time: 03:49:29
(UTC+02:00)
Language:

Ariane H10 - Orbit

View from above orbital plane
View from above orbital plane
View from above satellite
View from above satellite

Ground track
Ground track

The orbit data is extracted from the following two-line orbital elements,

1 21815U 91084C   16244.13274989 -.00000091  00000-0  21536-3 0  9990
2 21815   3.7495 206.3491 7184609 192.5960 128.3417  2.31664070205607
Epoch (UTC): 31 August 2016 03:11:09
Eccentricity: 0.7184609
inclination: 3.7495°
perigee height: 414 km
apogee height: 35082 km
right ascension of ascending node: 206.3491°
argument of perigee: 192.5960°
revolutions per day: 2.31664070
mean anomaly at epoch: 128.3417°
orbit number at epoch: 20560

The dashed part of the orbit path shows where the satellite is in the earth's shadow,  

DLR